Puerto Banus, Marbella

>

This is an optional block (switch it off / on) in the settings - file ($SITE['banners'] = false;)

You can display ads, any other important text or photo’s using text / html or PHP code.

You can place one or more at the top and or bottom and it can all be different for content / size .



aviso para Tormentas more information blitzortung!


aviso para Luvia  rain snow radar


Visita nuestra red de sitios de meteo:

Documentation for the template used

MeteoibericaRed estaciones Meteorologicas

MeteoclimaticRed estaciones Meteorologicas



Lluvia Desde: 21-10-2018 11:00 Hasta: 16:59 Advertencias para: Lluvia Nivel: Rojo info button
Tormentas Desde: 21-10-2018 11:00 Hasta: 22:59 Advertencias para: Tormentas Nivel: Amarillo info button

Pagina Historial Weather Underground texto

Diario Resumen January 1, 2018 Unidades:  Métrico    impérial   Tanto
« Anterior Dia
Siguiente Dia »
Diario Semana Mensual Anual Personalizada
  Maxima: Minima: Media:
Temperatura: -17.8 °C -11.4 °C -9.7 °C
Punto de rocío: -17.8 °C -19 °C -14.3 °C
Humedad: Humidity % 32 % 58 %
Velocidad del Viento: 0 km/h 0 km/h 11.1 km/h
Ráfagas de viento: 0 km/h - -
Viento:- - WSW
Pression baro: 0 hPa 34889.3 hPa -
Précipitaciones: 0 mm    
Historical Graphs
 
 
Datos de tabla para January 1, 2018
Tiempo Temperatura Punto de rocío Pression baro Viento Velocidad del Viento Ráfagas de viento Humedad Las precipitaciones Rate ( Hora )
-17.8 °C -17.8 °C 0 hPa Calm     Humidity % 0 mm
00:02 -8 °C -12.4 °C 34899.5 hPa NNW 20.9 km/h 20.9 km/h 60 % 0 mm
00:07 -7.8 °C -12.5 °C 34899.5 hPa North 18.2 km/h 18.2 km/h 58 % 0 mm
00:08 -7.8 °C -12.5 °C 34899.5 hPa NNW 23.8 km/h 23.8 km/h 58 % 0 mm
00:13 -7.8 °C -12.6 °C 34899.5 hPa NNW 15 km/h 15 km/h 57 % 0 mm
00:14 -7.8 °C -12.6 °C 34899.5 hPa NW 15 km/h 15 km/h 57 % 0 mm
00:18 -7.8 °C -12.6 °C 34889.3 hPa NW 15 km/h 15 km/h 57 % 0 mm
00:23 -7.8 °C -12.6 °C 34899.5 hPa NW 17.9 km/h 17.9 km/h 57 % 0 mm
00:24 -7.8 °C -12.6 °C 34899.5 hPa NW 15 km/h 15 km/h 57 % 0 mm
00:25 -7.8 °C -12.7 °C 34899.5 hPa NW 15.6 km/h 15.6 km/h 57 % 0 mm
00:29 -7.9 °C -12.7 °C 34899.5 hPa NNW 20.9 km/h 20.9 km/h 57 % 0 mm
00:34 -8 °C -12.4 °C 34899.5 hPa NE 15 km/h 15 km/h 60 % 0 mm
00:35 -8.1 °C -12.4 °C 34899.5 hPa NE 15.6 km/h 15.6 km/h 60 % 0 mm
00:40 -8.2 °C -12.7 °C 34899.5 hPa NNE 3.1 km/h   59 % 0 mm
00:41 -8.2 °C -12.7 °C 34899.5 hPa Calm     59 % 0 mm
00:42 -8.2 °C -12.5 °C 34899.5 hPa Calm     60 % 0 mm
00:47 -8.2 °C -12 °C 34899.5 hPa ENE 6 km/h 6 km/h 64 % 0 mm
00:48 -8.2 °C -12.1 °C 34899.5 hPa East 6 km/h 6 km/h 64 % 0 mm
00:52 -8.3 °C -11.9 °C 34899.5 hPa ENE 5.1 km/h 5.1 km/h 65 % 0 mm
00:55 -8.4 °C -11.8 °C 34909.7 hPa ENE 12.9 km/h 12.9 km/h 67 % 0 mm
01:00 -8.4 °C -11.8 °C 34899.5 hPa ENE 9 km/h 9 km/h 68 % 0 mm
01:01 -8.5 °C -11.8 °C 34899.5 hPa ENE 9 km/h 9 km/h 68 % 0 mm
01:06 -8.6 °C -12.1 °C 34909.7 hPa Calm     67 % 0 mm
01:08 -8.6 °C -11.9 °C 34909.7 hPa Calm     68 % 0 mm
01:10 -8.7 °C -11.9 °C 34909.7 hPa Calm     68 % 0 mm
01:14 -8.7 °C -12 °C 34909.7 hPa Calm     68 % 0 mm
01:19 -8.7 °C -12.1 °C 34909.7 hPa NE 9 km/h 9 km/h 68 % 0 mm
01:23 -8.8 °C -12.1 °C 34909.7 hPa NNW 9 km/h 9 km/h 68 % 0 mm
01:28 -8.8 °C -12.1 °C 34909.7 hPa Calm     68 % 0 mm
01:29 -8.8 °C -12.1 °C 34909.7 hPa NW 5.1 km/h 5.1 km/h 68 % 0 mm
01:34 -8.8 °C -12.1 °C 34909.7 hPa Calm     68 % 0 mm
01:35 -8.8 °C -12.1 °C 34909.7 hPa Calm     68 % 0 mm
01:40 -8.8 °C -12 °C 34909.7 hPa Calm     69 % 0 mm
01:41 -8.8 °C -12 °C 34909.7 hPa Calm     69 % 0 mm
01:46 -8.8 °C -12 °C 34909.7 hPa Calm     69 % 0 mm
01:47 -8.8 °C -11.9 °C 34909.7 hPa NW 5.1 km/h 5.1 km/h 70 % 0 mm
01:52 -8.8 °C -12 °C 34909.7 hPa Calm     69 % 0 mm
01:56 -8.8 °C -12 °C 34909.7 hPa NW 10.3 km/h 10.3 km/h 69 % 0 mm
01:57 -8.9 °C -12.2 °C 34909.7 hPa North 12.9 km/h 12.9 km/h 68 % 0 mm
02:01 -9.2 °C -12.6 °C 34909.7 hPa North 15.6 km/h 15.6 km/h 67 % 0 mm
02:04 -9.4 °C -12.7 °C 34909.7 hPa North 12.9 km/h 12.9 km/h 68 % 0 mm
02:09 -9.6 °C -12.8 °C 34909.7 hPa North 15.6 km/h 15.6 km/h 68 % 0 mm
02:14 -9.8 °C -12.9 °C 34909.7 hPa North 15 km/h 15 km/h 69 % 0 mm
02:16 -9.9 °C -13 °C 34909.7 hPa North 15.6 km/h 15.6 km/h 69 % 0 mm
02:19 -9.9 °C -12.9 °C 34909.7 hPa NNW 15 km/h 15 km/h 70 % 0 mm
02:22 -9.9 °C -12.9 °C 34909.7 hPa NNW 15 km/h 15 km/h 70 % 0 mm
02:24 -9.9 °C -12.9 °C 34909.7 hPa NNW 11.9 km/h 11.9 km/h 70 % 0 mm
02:29 -9.9 °C -12.9 °C 34909.7 hPa NNW 10.3 km/h 10.3 km/h 70 % 0 mm
02:30 -10 °C -13.1 °C 34909.7 hPa North 12.9 km/h 12.9 km/h 69 % 0 mm
02:35 -10.1 °C -13.2 °C 34909.7 hPa NNW 11.9 km/h 11.9 km/h 69 % 0 mm
02:36 -10.1 °C -13.2 °C 34909.7 hPa NNW 11.9 km/h 11.9 km/h 69 % 0 mm
02:39 -10.2 °C -13.3 °C 34909.7 hPa NNW 9 km/h 9 km/h 69 % 0 mm
02:41 -10.1 °C -13.2 °C 34909.7 hPa NNW 6 km/h 6 km/h 69 % 0 mm
02:46 -10.1 °C -13.4 °C 34909.7 hPa North 10.3 km/h 10.3 km/h 67 % 0 mm
02:47 -10.1 °C -13.4 °C 34909.7 hPa North 11.9 km/h 11.9 km/h 67 % 0 mm
02:48 -10.1 °C -13.4 °C 34909.7 hPa North 9 km/h 9 km/h 67 % 0 mm
02:53 -10.1 °C -13.6 °C 34909.7 hPa NW 9 km/h 9 km/h 66 % 0 mm
02:58 -10 °C -13.6 °C 34899.5 hPa North 11.9 km/h 11.9 km/h 65 % 0 mm
02:59 -9.9 °C -13.7 °C 34909.7 hPa North 11.9 km/h 11.9 km/h 64 % 0 mm
03:03 -9.9 °C -13.7 °C 34909.7 hPa NNW 9 km/h 9 km/h 64 % 0 mm
03:04 -9.9 °C -13.7 °C 34909.7 hPa NNW 9 km/h 9 km/h 64 % 0 mm
03:05 -10 °C -13.8 °C 34909.7 hPa NNW 9 km/h 9 km/h 63 % 0 mm
03:09 -10 °C -13.8 °C 34909.7 hPa Calm     63 % 0 mm
03:10 -10 °C -13.8 °C 34909.7 hPa NNW 2.6 km/h 2.6 km/h 63 % 0 mm
03:14 -10.1 °C -14 °C 34909.7 hPa NNW 9 km/h 9 km/h 62 % 0 mm
03:17 -10.1 °C -14.1 °C 34909.7 hPa Calm     62 % 0 mm
03:19 -10.1 °C -14.1 °C 34909.7 hPa Calm     62 % 0 mm
03:24 -10.2 °C -14.1 °C 34909.7 hPa North 12.9 km/h 12.9 km/h 62 % 0 mm
03:26 -10.2 °C -14.1 °C 34909.7 hPa North 11.9 km/h 11.9 km/h 62 % 0 mm
03:31 -10.2 °C -14.4 °C 34909.7 hPa North 11.9 km/h 11.9 km/h 60 % 0 mm
03:32 -10.2 °C -14.4 °C 34923.2 hPa North 12.9 km/h 12.9 km/h 60 % 0 mm
03:35 -10.2 °C -14.6 °C 34923.2 hPa NNW 10.3 km/h 10.3 km/h 59 % 0 mm
03:38 -10.2 °C -14.7 °C 34923.2 hPa NNW 9 km/h 9 km/h 58 % 0 mm
03:41 -10.2 °C -14.8 °C 34909.7 hPa NNW 9 km/h 9 km/h 57 % 0 mm
03:43 -10.2 °C -15.1 °C 34909.7 hPa NNW 9 km/h 9 km/h 55 % 0 mm
03:47 -10.2 °C -15.1 °C 34909.7 hPa Calm     55 % 0 mm
03:49 -10.1 °C -14.9 °C 34923.2 hPa Calm     56 % 0 mm
03:54 -10.1 °C -14.9 °C 34923.2 hPa Calm     56 % 0 mm
03:55 -10.1 °C -15.1 °C 34909.7 hPa NNW 10.3 km/h 10.3 km/h 55 % 0 mm
03:56 -10.1 °C -14.6 °C 34909.7 hPa NW 11.9 km/h 11.9 km/h 58 % 0 mm
04:00 -10 °C -15.4 °C 34909.7 hPa North 15 km/h 15 km/h 52 % 0 mm
04:05 -9.8 °C -15.7 °C 34909.7 hPa NNW 11.9 km/h 11.9 km/h 49 % 0 mm
04:07 -9.8 °C -15.8 °C 34923.2 hPa NNW 11.9 km/h 11.9 km/h 48 % 0 mm
04:13 -9.7 °C -15.4 °C 34923.2 hPa NW 7.7 km/h 7.7 km/h 50 % 0 mm
04:14 -9.7 °C -15.4 °C 34923.2 hPa NW 9 km/h 9 km/h 50 % 0 mm
04:19 -9.7 °C -15.8 °C 34923.2 hPa North 11.9 km/h 11.9 km/h 48 % 0 mm
04:20 -9.7 °C -15.8 °C 34923.2 hPa NNW 11.9 km/h 11.9 km/h 48 % 0 mm
04:23 -9.8 °C -15.7 °C 34923.2 hPa WNW 9 km/h 9 km/h 49 % 0 mm
04:26 -9.8 °C -15.8 °C 34923.2 hPa WNW 9 km/h 9 km/h 48 % 0 mm
04:30 -9.8 °C -15.7 °C 34923.2 hPa WNW 6 km/h 6 km/h 49 % 0 mm
04:33 -9.8 °C -15.7 °C 34923.2 hPa WNW 6 km/h 6 km/h 49 % 0 mm
04:38 -9.9 °C -15.7 °C 34909.7 hPa NW 6 km/h 6 km/h 50 % 0 mm
04:43 -10.1 °C -15.6 °C 34909.7 hPa WNW 9 km/h 9 km/h 51 % 0 mm
04:44 -10.1 °C -15.6 °C 34909.7 hPa WNW 9 km/h 9 km/h 51 % 0 mm
04:49 -10.2 °C -15.5 °C 34909.7 hPa NW 9 km/h 9 km/h 52 % 0 mm
04:54 -10.2 °C -15.4 °C 34909.7 hPa West 9 km/h 9 km/h 53 % 0 mm
04:59 -10.4 °C -15.7 °C 34909.7 hPa NW 9 km/h 9 km/h 52 % 0 mm
05:00 -10.4 °C -15.9 °C 34909.7 hPa North 15 km/h 15 km/h 51 % 0 mm
05:05 -10.4 °C -15.7 °C 34909.7 hPa WNW 12.9 km/h 12.9 km/h 52 % 0 mm
05:06 -10.4 °C -15.6 °C 34909.7 hPa WNW 11.9 km/h 11.9 km/h 53 % 0 mm
05:10 -10.4 °C -15.8 °C 34909.7 hPa NNW 12.9 km/h 12.9 km/h 52 % 0 mm
05:15 -10.4 °C -16.2 °C 34909.7 hPa NNW 17.9 km/h 17.9 km/h 49 % 0 mm
05:16 -10.4 °C -16.2 °C 34909.7 hPa North 17.9 km/h 17.9 km/h 49 % 0 mm
05:19 -10.3 °C -16.3 °C 34909.7 hPa NNE 23.8 km/h 23.8 km/h 48 % 0 mm
05:21 -10.2 °C -16.3 °C 34909.7 hPa North 26.9 km/h 26.9 km/h 48 % 0 mm
05:26 -10.2 °C -16.3 °C 34909.7 hPa North 15 km/h 15 km/h 48 % 0 mm
05:29 -10.3 °C -16.3 °C 34899.5 hPa North 20.8 km/h 20.8 km/h 48 % 0 mm
05:32 -10.3 °C -16.3 °C 34899.5 hPa NNW 20.9 km/h 20.9 km/h 48 % 0 mm
05:34 -10.3 °C -16.3 °C 34899.5 hPa NNW 26.9 km/h 26.9 km/h 48 % 0 mm
05:37 -10.3 °C -16.3 °C 34899.5 hPa North 23.3 km/h 23.3 km/h 48 % 0 mm
05:42 -10.4 °C -16.3 °C 34899.5 hPa North 20.9 km/h 20.9 km/h 48 % 0 mm
05:43 -10.4 °C -16.3 °C 34899.5 hPa NNW 29.8 km/h 29.8 km/h 48 % 0 mm
05:44 -10.4 °C -16.3 °C 34899.5 hPa North 20.9 km/h 20.9 km/h 48 % 0 mm
05:49 -10.4 °C -16.4 °C 34899.5 hPa NNE 26.9 km/h 26.9 km/h 48 % 0 mm
05:54 -10.4 °C -16.4 °C 34899.5 hPa NNE 29.8 km/h 29.8 km/h 48 % 0 mm
05:57 -10.4 °C -16.4 °C 34899.5 hPa North 26.9 km/h 26.9 km/h 48 % 0 mm
06:02 -10.5 °C -16.3 °C 34899.5 hPa North 26.9 km/h 26.9 km/h 49 % 0 mm
06:07 -10.6 °C -16.4 °C 34899.5 hPa NNE 29.8 km/h 29.8 km/h 49 % 0 mm
06:08 -10.6 °C -16.6 °C 34899.5 hPa North 29.8 km/h 29.8 km/h 48 % 0 mm
06:13 -10.6 °C -16.4 °C 34899.5 hPa North 26.9 km/h 26.9 km/h 49 % 0 mm
06:15 -10.6 °C -16.4 °C 34899.5 hPa North 20.9 km/h 20.9 km/h 49 % 0 mm
06:20 -10.7 °C -16.5 °C 34909.7 hPa North 29.8 km/h 29.8 km/h 49 % 0 mm
06:25 -10.7 °C -16.5 °C 34909.7 hPa North 20.9 km/h 20.9 km/h 49 % 0 mm
06:26 -10.7 °C -16.5 °C 34909.7 hPa NNE 18.2 km/h 18.2 km/h 49 % 0 mm
06:31 -10.7 °C -16.6 °C 34909.7 hPa North 12.9 km/h 12.9 km/h 49 % 0 mm
06:32 -10.8 °C -16.6 °C 34909.7 hPa North 15.6 km/h 15.6 km/h 49 % 0 mm
06:37 -10.8 °C -16.4 °C 34909.7 hPa North 20.9 km/h 20.9 km/h 50 % 0 mm
06:38 -10.8 °C -16.6 °C 34909.7 hPa North 20.8 km/h 20.8 km/h 49 % 0 mm
06:42 -10.8 °C -16.6 °C 34909.7 hPa NW 17.9 km/h 17.9 km/h 49 % 0 mm
06:46 -10.8 °C -16.4 °C 34909.7 hPa NNW 11.9 km/h 11.9 km/h 50 % 0 mm
06:51 -10.8 °C -16.3 °C 34923.2 hPa NNW 9 km/h 9 km/h 51 % 0 mm
06:57 -10.9 °C -15.6 °C 34923.2 hPa NNW 9 km/h 9 km/h 56 % 0 mm
06:58 -10.9 °C -15.7 °C 34923.2 hPa NNW 9 km/h 9 km/h 56 % 0 mm
07:03 -11.1 °C -16.1 °C 34923.2 hPa NNW 9 km/h 9 km/h 54 % 0 mm
07:05 -11.1 °C -16.1 °C 34923.2 hPa NNW 5.1 km/h 5.1 km/h 54 % 0 mm
07:10 -11.1 °C -16.4 °C 34923.2 hPa NNW 9 km/h 9 km/h 52 % 0 mm
07:11 -11.1 °C -16.3 °C 34923.2 hPa NNW 9 km/h 9 km/h 53 % 0 mm
07:16 -11.1 °C -16 °C 34923.2 hPa NNW 6 km/h 6 km/h 55 % 0 mm
07:21 -11.1 °C -16.2 °C 34909.7 hPa NNW 7.7 km/h 7.7 km/h 54 % 0 mm
07:26 -11.2 °C -16.3 °C 34909.7 hPa NNW 9 km/h 9 km/h 53 % 0 mm
07:27 -11.2 °C -16.3 °C 34909.7 hPa NNW 9 km/h 9 km/h 53 % 0 mm
07:32 -11.2 °C -16.3 °C 34923.2 hPa North 10.3 km/h 10.6 km/h 53 % 0 mm
07:34 -11.2 °C -16.3 °C 34923.2 hPa North 15 km/h 15 km/h 53 % 0 mm
07:36 -11.2 °C -16.4 °C 34923.2 hPa North 15 km/h 15 km/h 53 % 0 mm
07:39 -11.3 °C -16.4 °C 34923.2 hPa North 11.9 km/h 11.9 km/h 53 % 0 mm
07:44 -11.3 °C -16.5 °C 34933.4 hPa North 15 km/h 15 km/h 53 % 0 mm
07:45 -11.4 °C -16.6 °C 34933.4 hPa North 11.9 km/h 11.9 km/h 53 % 0 mm
07:48 -11.4 °C -16.6 °C 34933.4 hPa NNW 11.9 km/h 11.9 km/h 53 % 0 mm
07:52 -11.4 °C -16.6 °C 34933.4 hPa NNW 11.9 km/h 11.9 km/h 53 % 0 mm
07:55 -11.3 °C -16.3 °C 34933.4 hPa NNE 12.9 km/h 12.9 km/h 54 % 0 mm
08:00 -11.3 °C -16.5 °C 34933.4 hPa North 9 km/h 9 km/h 53 % 0 mm
08:05 -11.4 °C -16.6 °C 34933.4 hPa North 12.9 km/h 12.9 km/h 53 % 0 mm
08:08 -11.4 °C -16.6 °C 34933.4 hPa NNW 12.9 km/h 12.9 km/h 53 % 0 mm
08:10 -11.4 °C -16.6 °C 34933.4 hPa NNW 11.9 km/h 11.9 km/h 53 % 0 mm
08:15 -11.4 °C -16.6 °C 34933.4 hPa North 9 km/h 9 km/h 53 % 0 mm
08:20 -11.3 °C -16.6 °C 34933.4 hPa North 10.3 km/h 10.3 km/h 52 % 0 mm
08:23 -11.3 °C -16.6 °C 34933.4 hPa NNW 9 km/h 9 km/h 52 % 0 mm
08:28 -11.2 °C -16.2 °C 34933.4 hPa NNW 9 km/h 9 km/h 54 % 0 mm
08:32 -11.2 °C -15.9 °C 34946.9 hPa West 9 km/h 9 km/h 56 % 0 mm
08:34 -11.2 °C -15.8 °C 34946.9 hPa West 9 km/h 9 km/h 57 % 0 mm
08:39 -11.2 °C -15.7 °C 34946.9 hPa West 9 km/h 9 km/h 58 % 0 mm
08:40 -11.2 °C -15.7 °C 34946.9 hPa West 9 km/h 9 km/h 58 % 0 mm
08:45 -11.3 °C -15.7 °C 34946.9 hPa WNW 9 km/h 9 km/h 58 % 0 mm
08:50 -11.3 °C -15.7 °C 34946.9 hPa NNW 9 km/h 9 km/h 58 % 0 mm
08:51 -11.3 °C -15.7 °C 34946.9 hPa North 9 km/h 9 km/h 58 % 0 mm
08:56 -11.3 °C -15.8 °C 34946.9 hPa NNW 15.6 km/h 15.6 km/h 57 % 0 mm
08:57 -11.3 °C -15.8 °C 34946.9 hPa NNW 15.6 km/h 15.6 km/h 57 % 0 mm
09:02 -10.9 °C -16.2 °C 34957.1 hPa NNW 15 km/h 15 km/h 53 % 0 mm
09:07 -10.7 °C -16.2 °C 34946.9 hPa NNW 23.8 km/h 23.8 km/h 51 % 0 mm
09:12 -10.6 °C -16.2 °C 34957.1 hPa WNW 17.9 km/h 17.9 km/h 50 % 0 mm
09:15 -10.6 °C -16.2 °C 34957.1 hPa North 11.9 km/h 11.9 km/h 50 % 0 mm
09:20 -10.6 °C -16.2 °C 34957.1 hPa North 11.9 km/h 11.9 km/h 50 % 0 mm
09:25 -10.7 °C -16.3 °C 34957.1 hPa NNW 9 km/h 9 km/h 50 % 0 mm
09:26 -10.7 °C -16.4 °C 34957.1 hPa North 17.9 km/h 17.9 km/h 49 % 0 mm
09:31 -10.6 °C -16.6 °C 34967.2 hPa NNW 11.9 km/h 11.9 km/h 48 % 0 mm
09:36 -10.5 °C -16.5 °C 34967.2 hPa NNE 17.9 km/h 17.9 km/h 48 % 0 mm
09:41 -10.5 °C -16.7 °C 34957.1 hPa NNE 9 km/h 9 km/h 47 % 0 mm
09:46 -10.4 °C -16.6 °C 34967.2 hPa NNE 9 km/h 9 km/h 47 % 0 mm
09:48 -10.4 °C -16.6 °C 34967.2 hPa NNE 9 km/h 9 km/h 47 % 0 mm
09:52 -10.4 °C -16.6 °C 34980.8 hPa North 12.9 km/h 12.9 km/h 47 % 0 mm
09:57 -10.3 °C -16.5 °C 34980.8 hPa North 10.3 km/h 10.3 km/h 47 % 0 mm
10:02 -10.2 °C -16.4 °C 34980.8 hPa North 9 km/h 9 km/h 47 % 0 mm
10:03 -10.2 °C -16.3 °C 34980.8 hPa North 9 km/h 9 km/h 48 % 0 mm
10:08 -10.1 °C -16.2 °C 34980.8 hPa North 9 km/h 9 km/h 48 % 0 mm
10:12 -9.9 °C -16 °C 34980.8 hPa North 9 km/h 9 km/h 48 % 0 mm
10:14 -9.9 °C -15.9 °C 34980.8 hPa North 9 km/h 9 km/h 48 % 0 mm
10:19 -9.8 °C -15.7 °C 34980.8 hPa North 6 km/h 6 km/h 49 % 0 mm
10:20 -9.8 °C -15.7 °C 34980.8 hPa North 6 km/h 6 km/h 49 % 0 mm
10:21 -9.8 °C -15.7 °C 34980.8 hPa North 9 km/h 9 km/h 49 % 0 mm
10:26 -9.7 °C -15.7 °C 34980.8 hPa North 6 km/h 6 km/h 48 % 0 mm
10:31 -9.6 °C -15.8 °C 34990.9 hPa North 6 km/h 6 km/h 47 % 0 mm
10:33 -9.6 °C -15.9 °C 34990.9 hPa North 6 km/h 6 km/h 46 % 0 mm
10:38 -9.5 °C -16.1 °C 34990.9 hPa North 6 km/h 6 km/h 45 % 0 mm
10:40 -9.4 °C -15.9 °C 34990.9 hPa North 9 km/h 9 km/h 46 % 0 mm
10:43 -9.4 °C -15.8 °C 35001.1 hPa North 11.9 km/h 11.9 km/h 46 % 0 mm
10:45 -9.3 °C -15.7 °C 35001.1 hPa North 11.9 km/h 11.9 km/h 46 % 0 mm
10:50 -9.2 °C -15.7 °C 35001.1 hPa NNE 9 km/h 9 km/h 46 % 0 mm
10:51 -9.2 °C -15.6 °C 35001.1 hPa NNE 6 km/h 6 km/h 46 % 0 mm
10:56 -9.1 °C -15.4 °C 35001.1 hPa Calm     47 % 0 mm
11:01 -9 °C -15.4 °C 35001.1 hPa Calm     46 % 0 mm
11:05 -9 °C -15.4 °C 35001.1 hPa Calm     46 % 0 mm
11:08 -9 °C -15.1 °C 35001.1 hPa NE 9 km/h 9 km/h 48 % 0 mm
11:13 -9.1 °C -15.2 °C 35001.1 hPa Calm     48 % 0 mm
11:17 -9 °C -14.8 °C 35001.1 hPa Calm     50 % 0 mm
11:19 -8.9 °C -14.9 °C 35001.1 hPa Calm     49 % 0 mm
11:22 -8.9 °C -14.3 °C 35001.1 hPa NE 7.7 km/h 7.7 km/h 52 % 0 mm
11:24 -8.8 °C -13.9 °C 35014.6 hPa NE 9 km/h 9 km/h 55 % 0 mm
11:29 -8.8 °C -14.1 °C 35001.1 hPa Calm     53 % 0 mm
11:32 -8.7 °C -14.2 °C 35001.1 hPa Calm     52 % 0 mm
11:37 -8.6 °C -13.8 °C 35001.1 hPa ENE 9 km/h 9 km/h 54 % 0 mm
11:42 -8.6 °C -13.5 °C 35001.1 hPa ENE 9 km/h 9 km/h 56 % 0 mm
11:43 -8.6 °C -13.3 °C 35001.1 hPa ENE 9 km/h 9 km/h 57 % 0 mm
11:48 -8.6 °C -13.5 °C 35001.1 hPa ENE 3.1 km/h   56 % 0 mm
11:51 -8.6 °C -13.2 °C 35001.1 hPa East 9 km/h 9 km/h 58 % 0 mm
11:55 -8.6 °C -12.9 °C 35001.1 hPa South 10.3 km/h 10.3 km/h 60 % 0 mm
11:56 -8.6 °C -12.8 °C 35001.1 hPa South 9 km/h 9.3 km/h 61 % 0 mm
12:01 -8.7 °C -12.7 °C 35001.1 hPa South 6 km/h 6 km/h 62 % 0 mm
12:06 -8.7 °C -13 °C 35001.1 hPa South 6 km/h 6 km/h 60 % 0 mm
12:09 -8.7 °C -13.2 °C 35001.1 hPa South 6 km/h 6 km/h 59 % 0 mm
12:12 -8.7 °C -12.8 °C 35001.1 hPa South 5.1 km/h 5.1 km/h 61 % 0 mm
12:14 -8.6 °C -12.9 °C 35001.1 hPa South 6 km/h 6 km/h 60 % 0 mm
12:19 -8.6 °C -12.4 °C 35001.1 hPa South 6 km/h 6 km/h 63 % 0 mm
12:21 -8.5 °C -12.3 °C 35001.1 hPa South 6 km/h 6 km/h 64 % 0 mm
12:25 -8.5 °C -12.3 °C 34990.9 hPa South 6 km/h 6 km/h 64 % 0 mm
12:30 -8.5 °C -12.3 °C 34990.9 hPa South 6 km/h 6 km/h 64 % 0 mm
12:31 -8.5 °C -12.3 °C 34990.9 hPa South 7.7 km/h 7.7 km/h 64 % 0 mm
12:36 -8.6 °C -12.7 °C 34990.9 hPa SSW 10.3 km/h 10.3 km/h 61 % 0 mm
12:37 -8.6 °C -12.8 °C 34990.9 hPa SSW 10.3 km/h 10.3 km/h 61 % 0 mm
12:43 -8.6 °C -12.4 °C 34990.9 hPa SW 10.3 km/h 10.3 km/h 64 % 0 mm
12:48 -8.7 °C -12.4 °C 34980.8 hPa WSW 9 km/h 9 km/h 65 % 0 mm
12:49 -8.7 °C -12.4 °C 34980.8 hPa WSW 9 km/h 9 km/h 65 % 0 mm
12:54 -8.7 °C -12.3 °C 34990.9 hPa SW 15 km/h 15 km/h 66 % 0 mm
12:58 -8.7 °C -12.2 °C 34990.9 hPa SW 11.9 km/h 12.4 km/h 67 % 0 mm
13:01 -8.8 °C -11.9 °C 34990.9 hPa SW 11.9 km/h 11.9 km/h 69 % 0 mm
13:06 -8.8 °C -12.1 °C 34980.8 hPa SW 15 km/h 15 km/h 68 % 0 mm
13:09 -8.9 °C -12.1 °C 34980.8 hPa SW 15 km/h 15 km/h 69 % 0 mm
13:11 -8.9 °C -12.1 °C 34980.8 hPa WSW 18.2 km/h 18.2 km/h 69 % 0 mm
13:14 -8.9 °C -11.9 °C 34980.8 hPa SW 20.9 km/h 20.9 km/h 70 % 0 mm
13:19 -8.9 °C -11.8 °C 34967.2 hPa WSW 18.2 km/h 18.2 km/h 71 % 0 mm
13:20 -8.9 °C -11.8 °C 34967.2 hPa WSW 18.2 km/h 18.2 km/h 71 % 0 mm
13:25 -8.9 °C -11.6 °C 34967.2 hPa WSW 15.6 km/h 15.6 km/h 73 % 0 mm
13:27 -8.9 °C -11.6 °C 34967.2 hPa WSW 15.6 km/h 15.6 km/h 73 % 0 mm
13:31 -9 °C -11.6 °C 34967.2 hPa WSW 17.9 km/h 17.9 km/h 74 % 0 mm
13:36 -9 °C -11.6 °C 34967.2 hPa SW 15.6 km/h 15.6 km/h 74 % 0 mm
13:41 -9.1 °C -11.5 °C 34967.2 hPa WSW 20.9 km/h 20.9 km/h 75 % 0 mm
13:46 -9.1 °C -11.6 °C 34967.2 hPa WSW 15.6 km/h 15.6 km/h 75 % 0 mm
13:51 -9.2 °C -11.8 °C 34957.1 hPa WSW 11.9 km/h 11.9 km/h 74 % 0 mm
13:52 -9.2 °C -11.8 °C 34957.1 hPa WSW 15.6 km/h 15.6 km/h 74 % 0 mm
13:55 -9.3 °C -12 °C 34957.1 hPa WSW 15.6 km/h 15.6 km/h 73 % 0 mm
13:57 -9.3 °C -12 °C 34957.1 hPa WSW 17.9 km/h 17.9 km/h 73 % 0 mm
14:02 -9.3 °C -12.1 °C 34957.1 hPa SW 17.9 km/h 17.9 km/h 72 % 0 mm
14:07 -9.3 °C -12.2 °C 34957.1 hPa WSW 20.9 km/h 20.9 km/h 71 % 0 mm
14:08 -9.3 °C -12.3 °C 34957.1 hPa WSW 20.9 km/h 20.9 km/h 70 % 0 mm
14:13 -9.3 °C -12.4 °C 34946.9 hPa WSW 15.6 km/h 15.6 km/h 69 % 0 mm
14:15 -9.3 °C -12.6 °C 34946.9 hPa WSW 15 km/h 15 km/h 68 % 0 mm
14:18 -9.4 °C -12.9 °C 34946.9 hPa WSW 15 km/h 15 km/h 66 % 0 mm
14:22 -9.3 °C -12.7 °C 34946.9 hPa SW 17.9 km/h 17.9 km/h 67 % 0 mm
14:24 -9.2 °C -12.5 °C 34946.9 hPa SW 15.6 km/h 15.6 km/h 68 % 0 mm
14:27 -9.2 °C -12.4 °C 34946.9 hPa WSW 17.9 km/h 17.9 km/h 68 % 0 mm
14:30 -9.2 °C -12.6 °C 34946.9 hPa WSW 17.9 km/h 17.9 km/h 67 % 0 mm
14:34 -9.2 °C -12.6 °C 34933.4 hPa WSW 15 km/h 15 km/h 67 % 0 mm
14:38 -9.2 °C -12.8 °C 34933.4 hPa WSW 15 km/h 15 km/h 65 % 0 mm
14:40 -9.1 °C -12.9 °C 34933.4 hPa WSW 12.9 km/h 12.9 km/h 64 % 0 mm
14:43 -9 °C -12.9 °C 34933.4 hPa SW 15.6 km/h 16.1 km/h 63 % 0 mm
14:48 -8.9 °C -12.6 °C 34933.4 hPa SW 15 km/h 15 km/h 65 % 0 mm
14:50 -8.9 °C -12.7 °C 34933.4 hPa WSW 15 km/h 15 km/h 64 % 0 mm
14:51 -8.9 °C -12.7 °C 34933.4 hPa WSW 11.9 km/h 11.9 km/h 64 % 0 mm
14:56 -8.9 °C -12.9 °C 34923.2 hPa WSW 12.9 km/h 12.9 km/h 62 % 0 mm
14:59 -8.9 °C -12.9 °C 34923.2 hPa WSW 11.9 km/h 11.9 km/h 62 % 0 mm
15:04 -8.8 °C -12.5 °C 34933.4 hPa WSW 11.9 km/h 11.9 km/h 65 % 0 mm
15:06 -8.8 °C -12.6 °C 34933.4 hPa SW 11.9 km/h 11.9 km/h 64 % 0 mm
15:11 -8.8 °C -12.6 °C 34923.2 hPa WSW 15.6 km/h 15.6 km/h 64 % 0 mm
15:16 -8.8 °C -12.3 °C 34909.7 hPa WSW 11.9 km/h 11.9 km/h 67 % 0 mm
15:19 -8.9 °C -12.4 °C 34909.7 hPa WSW 12.9 km/h 12.9 km/h 66 % 0 mm
15:20 -8.9 °C -12.4 °C 34909.7 hPa WSW 11.9 km/h 11.9 km/h 66 % 0 mm
15:25 -8.9 °C -12.6 °C 34923.2 hPa SW 15 km/h 15 km/h 65 % 0 mm
15:26 -8.9 °C -12.6 °C 34923.2 hPa SW 17.9 km/h 17.9 km/h 65 % 0 mm
15:31 -8.9 °C -12.2 °C 34923.2 hPa SW 10.3 km/h 10.3 km/h 68 % 0 mm
15:36 -9 °C -12.4 °C 34923.2 hPa SW 9 km/h 9 km/h 67 % 0 mm
15:37 -9 °C -12.4 °C 34909.7 hPa SW 9 km/h 9 km/h 67 % 0 mm
15:42 -9 °C -12.4 °C 34909.7 hPa SW 10.3 km/h 10.3 km/h 67 % 0 mm
15:43 -9 °C -12.5 °C 34909.7 hPa SW 9 km/h 9 km/h 66 % 0 mm
15:48 -8.9 °C -12.4 °C 34909.7 hPa SW 10.3 km/h 10.3 km/h 66 % 0 mm
15:53 -8.9 °C -12.6 °C 34909.7 hPa SW 9 km/h 9 km/h 65 % 0 mm
15:58 -8.8 °C -12.5 °C 34909.7 hPa SW 9 km/h 9 km/h 65 % 0 mm
15:59 -8.8 °C -12.6 °C 34909.7 hPa SW 9 km/h 9 km/h 64 % 0 mm
16:04 -8.7 °C -12.6 °C 34909.7 hPa SW 9 km/h 9 km/h 63 % 0 mm
16:05 -8.7 °C -12.6 °C 34909.7 hPa SW 10.3 km/h 10.3 km/h 63 % 0 mm
16:07 -8.6 °C -12.3 °C 34899.5 hPa SW 12.9 km/h 12.9 km/h 65 % 0 mm
16:12 -8.6 °C -11.6 °C 34899.5 hPa SW 15 km/h 15 km/h 70 % 0 mm
16:13 -8.6 °C -11.6 °C 34899.5 hPa SW 15 km/h 15 km/h 70 % 0 mm
16:15 -8.6 °C -11.5 °C 34899.5 hPa SW 7.7 km/h 15.6 km/h 71 % 0 mm
16:20 -8.7 °C -11.7 °C 34899.5 hPa SW 11.9 km/h 11.9 km/h 70 % 0 mm
16:21 -8.7 °C -11.7 °C 34899.5 hPa SW 15 km/h 15 km/h 70 % 0 mm
16:22 -8.7 °C -11.7 °C 34899.5 hPa SW 12.9 km/h 12.9 km/h 70 % 0 mm
16:27 -8.7 °C -11.6 °C 34899.5 hPa SW 11.9 km/h 11.9 km/h 71 % 0 mm
16:28 -8.7 °C -11.6 °C 34899.5 hPa SW 12.9 km/h 12.9 km/h 71 % 0 mm
16:33 -8.7 °C -11.4 °C 34899.5 hPa SW 9 km/h 9 km/h 73 % 0 mm
16:37 -8.7 °C -11.4 °C 34899.5 hPa SW 10.3 km/h 10.3 km/h 73 % 0 mm
16:41 -8.8 °C -11.8 °C 34899.5 hPa WSW 11.9 km/h 11.9 km/h 71 % 0 mm
16:42 -8.8 °C -11.8 °C 34899.5 hPa WSW 11.9 km/h 11.9 km/h 71 % 0 mm
16:46 -8.8 °C -11.8 °C 34899.5 hPa WSW 9 km/h 9 km/h 71 % 0 mm
16:50 -8.8 °C -12.1 °C 34899.5 hPa WSW 9 km/h 9 km/h 68 % 0 mm
16:52 -8.8 °C -12.1 °C 34909.7 hPa WSW 9 km/h 9 km/h 68 % 0 mm
16:57 -8.7 °C -12.2 °C 34909.7 hPa WSW 12.9 km/h 12.9 km/h 67 % 0 mm
17:00 -8.7 °C -12 °C 34909.7 hPa WSW 9 km/h 9 km/h 68 % 0 mm
17:01 -8.7 °C -12 °C 34909.7 hPa WSW 9 km/h 9 km/h 68 % 0 mm
17:05 -8.7 °C -11.8 °C 34909.7 hPa WSW 11.9 km/h 11.9 km/h 69 % 0 mm
17:10 -8.7 °C -11.7 °C 34909.7 hPa WSW 9 km/h 9 km/h 70 % 0 mm
17:11 -8.7 °C -11.7 °C 34909.7 hPa WSW 9 km/h 9 km/h 70 % 0 mm
17:16 -8.7 °C -11.8 °C 34909.7 hPa WSW 9 km/h 9 km/h 70 % 0 mm
17:17 -8.7 °C -11.8 °C 34909.7 hPa WSW 9 km/h 9 km/h 70 % 0 mm
17:22 -8.8 °C -11.7 °C 34909.7 hPa WSW 12.9 km/h 12.9 km/h 71 % 0 mm
17:23 -8.8 °C -11.7 °C 34909.7 hPa WSW 11.9 km/h 11.9 km/h 71 % 0 mm
17:28 -8.8 °C -11.7 °C 34923.2 hPa WSW 12.9 km/h 12.9 km/h 71 % 0 mm
17:29 -8.8 °C -11.8 °C 34923.2 hPa WSW 11.9 km/h 11.9 km/h 71 % 0 mm
17:34 -8.9 °C -12.1 °C 34923.2 hPa WSW 10.3 km/h 10.3 km/h 69 % 0 mm
17:36 -8.9 °C -12.2 °C 34923.2 hPa WSW 9 km/h 9 km/h 68 % 0 mm
17:38 -8.9 °C -12.3 °C 34923.2 hPa WSW 10.3 km/h 10.3 km/h 67 % 0 mm
17:43 -8.9 °C -12.6 °C 34909.7 hPa WSW 10.3 km/h 10.3 km/h 65 % 0 mm
17:44 -8.9 °C -12.4 °C 34909.7 hPa WSW 9 km/h 9 km/h 66 % 0 mm
17:49 -8.8 °C -11.8 °C 34909.7 hPa WSW 10.3 km/h 10.3 km/h 70 % 0 mm
17:54 -8.8 °C -11.7 °C 34909.7 hPa WSW 10.3 km/h 10.3 km/h 71 % 0 mm
17:58 -8.8 °C -11.9 °C 34909.7 hPa WSW 11.9 km/h 11.9 km/h 70 % 0 mm
18:01 -8.9 °C -11.9 °C 34909.7 hPa WSW 15 km/h 15 km/h 70 % 0 mm
18:04 -8.9 °C -12.1 °C 34909.7 hPa WSW 12.9 km/h 12.9 km/h 69 % 0 mm
18:06 -9 °C -12.3 °C 34909.7 hPa WSW 15 km/h 15 km/h 68 % 0 mm
18:11 -9.1 °C -12.6 °C 34909.7 hPa WSW 20.9 km/h 20.9 km/h 66 % 0 mm
18:12 -9.1 °C -12.7 °C 34909.7 hPa WSW 17.9 km/h 17.9 km/h 65 % 0 mm
18:17 -9.1 °C -12.6 °C 34909.7 hPa West 9 km/h 9 km/h 66 % 0 mm
18:19 -9.1 °C -12.6 °C 34909.7 hPa West 9 km/h 9 km/h 66 % 0 mm
18:22 -9.1 °C -12.7 °C 34909.7 hPa Calm     65 % 0 mm
18:27 -9.1 °C -12.3 °C 34923.2 hPa Calm     69 % 0 mm
18:28 -9.1 °C -12.3 °C 34923.2 hPa Calm     69 % 0 mm
18:33 -9.2 °C -12.3 °C 34909.7 hPa Calm     70 % 0 mm
18:36 -9.3 °C -12.3 °C 34909.7 hPa Calm     70 % 0 mm
18:37 -9.3 °C -12.3 °C 34923.2 hPa Calm     70 % 0 mm
18:42 -9.3 °C -12.4 °C 34909.7 hPa NW 9 km/h 9 km/h 70 % 0 mm
18:44 -9.4 °C -12.6 °C 34909.7 hPa NNW 9 km/h 9 km/h 69 % 0 mm
18:48 -9.5 °C -12.7 °C 34909.7 hPa NNW 9 km/h 9 km/h 68 % 0 mm
18:49 -9.5 °C -12.7 °C 34909.7 hPa NNW 9 km/h 9 km/h 69 % 0 mm
18:54 -9.6 °C -13 °C 34909.7 hPa North 11.9 km/h 11.9 km/h 67 % 0 mm
18:55 -9.6 °C -13 °C 34909.7 hPa North 11.9 km/h 11.9 km/h 67 % 0 mm
19:00 -9.7 °C -13.2 °C 34923.2 hPa North 9 km/h 9 km/h 66 % 0 mm
19:04 -9.8 °C -13.3 °C 34923.2 hPa North 9 km/h 9 km/h 66 % 0 mm
19:05 -9.8 °C -13.2 °C 34923.2 hPa North 9 km/h 9 km/h 67 % 0 mm
19:10 -9.8 °C -13.1 °C 34909.7 hPa Calm     67 % 0 mm
19:11 -9.8 °C -13.1 °C 34909.7 hPa Calm     67 % 0 mm
19:16 -9.8 °C -13.1 °C 34909.7 hPa Calm     68 % 0 mm
19:19 -9.8 °C -13.1 °C 34923.2 hPa Calm     68 % 0 mm
19:23 -9.9 °C -13.2 °C 34909.7 hPa North 9 km/h 9 km/h 68 % 0 mm
19:26 -10 °C -13.2 °C 34909.7 hPa North 12.9 km/h 12.9 km/h 68 % 0 mm
19:31 -10.1 °C -13.4 °C 34923.2 hPa North 12.9 km/h 12.9 km/h 67 % 0 mm
19:32 -10.2 °C -13.5 °C 34923.2 hPa North 15 km/h 15 km/h 67 % 0 mm
19:34 -10.2 °C -13.5 °C 34923.2 hPa North 15.6 km/h 15.6 km/h 67 % 0 mm
19:38 -10.2 °C -13.7 °C 34933.4 hPa North 15 km/h 15 km/h 66 % 0 mm
19:43 -10.2 °C -13.7 °C 34933.4 hPa North 11.9 km/h 12.2 km/h 66 % 0 mm
19:48 -10.3 °C -14 °C 34923.2 hPa NNW 9 km/h 9 km/h 64 % 0 mm
19:49 -10.3 °C -14 °C 34923.2 hPa NNW 10.3 km/h 10.3 km/h 64 % 0 mm
19:50 -10.3 °C -14 °C 34923.2 hPa NNW 9 km/h 9 km/h 64 % 0 mm
19:55 -10.2 °C -14.1 °C 34923.2 hPa North 11.9 km/h 11.9 km/h 63 % 0 mm
19:57 -10.2 °C -13.8 °C 34923.2 hPa North 11.9 km/h 11.9 km/h 64 % 0 mm
20:02 -10.2 °C -14.2 °C 34923.2 hPa North 11.9 km/h 11.9 km/h 62 % 0 mm
20:04 -10.2 °C -14.2 °C 34923.2 hPa NNW 11.9 km/h 11.9 km/h 62 % 0 mm
20:09 -10.2 °C -15 °C 34933.4 hPa NNW 18.2 km/h 18.2 km/h 56 % 0 mm
20:14 -10.1 °C -15.2 °C 34933.4 hPa NNW 20.8 km/h 20.8 km/h 54 % 0 mm
20:15 -10.1 °C -15.3 °C 34933.4 hPa NNW 20.9 km/h 20.9 km/h 53 % 0 mm
20:20 -10.1 °C -15.5 °C 34933.4 hPa North 20.9 km/h 20.9 km/h 52 % 0 mm
20:22 -10.1 °C -15.8 °C 34933.4 hPa North 26.9 km/h 26.9 km/h 50 % 0 mm
20:25 -10.1 °C -15.9 °C 34933.4 hPa NNW 20.9 km/h 20.9 km/h 49 % 0 mm
20:28 -10.1 °C -15.9 °C 34933.4 hPa North 20.9 km/h 20.9 km/h 49 % 0 mm
20:30 -10.1 °C -15.9 °C 34933.4 hPa North 17.9 km/h 17.9 km/h 49 % 0 mm
20:35 -10.1 °C -16.2 °C 34946.9 hPa North 18.2 km/h 18.2 km/h 48 % 0 mm
20:36 -10.1 °C -16.2 °C 34933.4 hPa North 17.9 km/h 17.9 km/h 48 % 0 mm
20:41 -10.2 °C -16.2 °C 34946.9 hPa North 17.9 km/h 17.9 km/h 48 % 0 mm
20:45 -10.2 °C -15.9 °C 34946.9 hPa ENE 15 km/h 15 km/h 50 % 0 mm
20:46 -10.2 °C -15.8 °C 34946.9 hPa NE 11.9 km/h 11.9 km/h 51 % 0 mm
20:51 -10.4 °C -15.8 °C 34946.9 hPa NNE 11.9 km/h 11.9 km/h 52 % 0 mm
20:52 -10.4 °C -15.9 °C 34946.9 hPa NNE 11.9 km/h 11.9 km/h 51 % 0 mm
20:57 -10.5 °C -16 °C 34946.9 hPa North 9 km/h 9 km/h 51 % 0 mm
20:58 -10.5 °C -16 °C 34946.9 hPa North 9 km/h 9 km/h 51 % 0 mm
21:03 -10.6 °C -16.2 °C 34957.1 hPa North 12.9 km/h 12.9 km/h 50 % 0 mm
21:05 -10.6 °C -16.2 °C 34957.1 hPa North 15 km/h 15 km/h 50 % 0 mm
21:10 -10.5 °C -16 °C 34957.1 hPa North 9 km/h 9 km/h 51 % 0 mm
21:15 -10.4 °C -15.6 °C 34957.1 hPa North 9 km/h 9 km/h 53 % 0 mm
21:16 -10.4 °C -15.6 °C 34957.1 hPa North 10.3 km/h 10.3 km/h 53 % 0 mm
21:21 -10.3 °C -16.2 °C 34957.1 hPa North 11.9 km/h 11.9 km/h 49 % 0 mm
21:23 -10.3 °C -16 °C 34957.1 hPa North 9 km/h 9 km/h 50 % 0 mm
21:26 -10.3 °C -16.3 °C 34957.1 hPa North 17.9 km/h 17.9 km/h 48 % 0 mm
21:31 -10.3 °C -16.6 °C 34957.1 hPa NNE 11.9 km/h 11.9 km/h 46 % 0 mm
21:33 -10.3 °C -16.8 °C 34957.1 hPa North 10.3 km/h 10.3 km/h 45 % 0 mm
21:38 -10.3 °C -16.8 °C 34957.1 hPa NNE 9 km/h 9 km/h 45 % 0 mm
21:43 -10.4 °C -16.9 °C 34957.1 hPa North 12.9 km/h 12.9 km/h 45 % 0 mm
21:44 -10.4 °C -16.9 °C 34957.1 hPa North 11.9 km/h 11.9 km/h 45 % 0 mm
21:49 -10.4 °C -17.1 °C 34957.1 hPa North 6 km/h 6 km/h 44 % 0 mm
21:54 -10.4 °C -17.7 °C 34946.9 hPa NNW 9 km/h 9 km/h 41 % 0 mm
21:55 -10.4 °C -17.6 °C 34946.9 hPa NNW 9 km/h 9 km/h 41 % 0 mm
22:00 -10.2 °C -17.9 °C 34946.9 hPa North 17.9 km/h 17.9 km/h 39 % 0 mm
22:04 -10.2 °C -18.2 °C 34946.9 hPa NNW 11.9 km/h 11.9 km/h 37 % 0 mm
22:05 -10.1 °C -18.2 °C 34957.1 hPa NNW 11.9 km/h 11.9 km/h 37 % 0 mm
22:10 -10 °C -18.7 °C 34957.1 hPa NNW 17.9 km/h 17.9 km/h 34 % 0 mm
22:15 -9.9 °C -18.8 °C 34957.1 hPa NNW 15 km/h 15 km/h 33 % 0 mm
22:20 -9.8 °C -19 °C 34957.1 hPa North 7.7 km/h 18.2 km/h 32 % 0 mm
22:23 -9.8 °C -18.9 °C 34957.1 hPa North 9 km/h 9 km/h 32 % 0 mm
22:26 -9.8 °C -18.9 °C 34957.1 hPa North 9 km/h 9 km/h 32 % 0 mm
22:31 -9.8 °C -17.9 °C 34957.1 hPa North 6 km/h 6 km/h 37 % 0 mm
22:32 -9.8 °C -17.3 °C 34957.1 hPa North 6 km/h 6 km/h 40 % 0 mm
22:34 -9.8 °C -16.5 °C 34957.1 hPa NNW 9 km/h 9 km/h 44 % 0 mm
22:37 -9.8 °C -15.9 °C 34957.1 hPa NNW 5.1 km/h 5.1 km/h 48 % 0 mm
22:42 -9.8 °C -15.4 °C 34957.1 hPa NNW 3.1 km/h 3.1 km/h 51 % 0 mm
22:43 -9.8 °C -15.7 °C 34957.1 hPa NNW 3.1 km/h 3.1 km/h 49 % 0 mm
22:48 -9.9 °C -16.5 °C 34957.1 hPa NNW 3.1 km/h 3.1 km/h 45 % 0 mm
22:51 -10 °C -17.8 °C 34946.9 hPa NNW 7.7 km/h 7.7 km/h 38 % 0 mm
22:56 -10.1 °C -17.9 °C 34957.1 hPa NNE 9 km/h 9 km/h 38 % 0 mm
23:01 -10.2 °C -17.9 °C 34957.1 hPa North 9 km/h 9 km/h 38 % 0 mm
23:05 -10.2 °C -17.9 °C 34957.1 hPa NNW 11.9 km/h 11.9 km/h 38 % 0 mm
23:07 -10.2 °C -17.9 °C 34957.1 hPa NNW 9 km/h 9 km/h 38 % 0 mm
23:12 -10.1 °C -17.9 °C 34957.1 hPa NNW 9 km/h 9 km/h 38 % 0 mm
23:14 -10.1 °C -17.9 °C 34957.1 hPa NNW 9 km/h 9 km/h 38 % 0 mm
23:18 -10.1 °C -17.6 °C 34957.1 hPa NNW 6 km/h 6 km/h 40 % 0 mm
23:21 -10.1 °C -17.9 °C 34957.1 hPa NNW 3.1 km/h 3.1 km/h 38 % 0 mm
23:25 -10.1 °C -17.7 °C 34957.1 hPa NNW 6 km/h 6 km/h 39 % 0 mm
23:30 -10 °C -18.1 °C 34957.1 hPa NNW 6 km/h 6 km/h 37 % 0 mm
23:31 -9.9 °C -18 °C 34957.1 hPa NNW 6 km/h 6 km/h 37 % 0 mm
23:36 -9.8 °C -18.1 °C 34957.1 hPa NNW 9 km/h 9 km/h 36 % 0 mm
23:39 -9.8 °C -17.6 °C 34957.1 hPa Calm     38 % 0 mm
23:44 -9.8 °C -16.6 °C 34957.1 hPa NNW 9 km/h 9 km/h 44 % 0 mm
23:49 -9.9 °C -15.3 °C 34967.2 hPa NNW 6 km/h 6 km/h 52 % 0 mm
23:50 -9.9 °C -15.3 °C 34967.2 hPa NNW 6 km/h 6 km/h 52 % 0 mm
23:54 -10.1 °C -16.1 °C 34967.2 hPa Calm     48 % 0 mm
23:55 -10.1 °C -16.1 °C 34967.2 hPa Calm     48 % 0 mm
Puerto Banus, Marbella
Elogios de Weather Underground - 2.25 mb

Guión original por  Jim McMurry - jmcmurry@mwt.net Adaptado para la plantilla por  Wim van der Kuil - Leuven-Template.eu

Usted encontrará nuestra información del tiempo también en:

Weather Underground

Iberian Peninsula Weather Network